This is the latest recevied weather packets stored in our database for station/object KB3AWQ. If no packets are shown the sender has not sent any weather packets the latest 10 day(s).
| Time | Temp. | Humidity | Pressure | Rain* | Wind** | Luminosity | Snow |
|---|---|---|---|---|---|---|---|
| 1787938166 | 27.78° C | 63% | 1018.8 hPa | 0 mm | - | 899 W/m² | - |
| 1787937867 | 27.22° C | 63% | 1018.9 hPa | 0 mm | - | 906 W/m² | - |
| 1787937567 | 27.22° C | 63% | 1018.9 hPa | 0 mm | - | 942 W/m² | - |
| 1787937266 | 27.78° C | 63% | 1019 hPa | 0 mm | - | 907 W/m² | - |
| 1787936968 | 27.22° C | 64% | 1019 hPa | 0 mm | - | 911 W/m² | - |
| 1787936667 | 27.22° C | 65% | 1019 hPa | 0 mm | - | 948 W/m² | - |
| 1787936366 | 26.67° C | 65% | 1019 hPa | 0 mm | - | 911 W/m² | - |
| 1787936066 | 26.67° C | 66% | 1019 hPa | 0 mm | - | 900 W/m² | - |
| 1787935767 | 26.67° C | 64% | 1019 hPa | 0 mm | - | 894 W/m² | - |
| 1787935467 | 26.67° C | 69% | 1019 hPa | 0 mm | - | 904 W/m² | - |
| 1787935166 | 26.67° C | 69% | 1019 hPa | 0 mm | - | 890 W/m² | - |
| 1787934866 | 26.67° C | 67% | 1019.1 hPa | 0 mm | - | 889 W/m² | - |
| 1787934566 | 26.11° C | 71% | 1019 hPa | 0 mm | - | 882 W/m² | - |
| 1787934273 | 26.11° C | 69% | 1019.1 hPa | 0 mm | - | 880 W/m² | - |
| 1787933966 | 26.11° C | 70% | 1019.1 hPa | 0 mm | - | 881 W/m² | - |
| 1787933667 | 26.11° C | 72% | 1019.1 hPa | 0 mm | - | 715 W/m² | - |
| 1787933367 | 26.67° C | 70% | 1019.1 hPa | 0 mm | - | 233 W/m² | - |
| 1787933067 | 26.67° C | 69% | 1019.1 hPa | 0 mm | - | 226 W/m² | - |
| 1787932766 | 26.67° C | 69% | 1019.1 hPa | 0 mm | - | 970 W/m² | - |
| 1787932467 | 26.11° C | 70% | 1019.1 hPa | 0 mm | - | 946 W/m² | - |
| 1787932168 | 25.56° C | 75% | 1019.2 hPa | 0 mm | - | 927 W/m² | - |
| 1787931866 | 25.56° C | 74% | 1019.2 hPa | 0 mm | - | 191 W/m² | - |
| 1787931566 | 25.56° C | 75% | 1019.1 hPa | 0 mm | - | 910 W/m² | - |
| 1787931266 | 25.56° C | 76% | 1019.1 hPa | 0 mm | - | 890 W/m² | - |
| 1787930966 | 25.56° C | 75% | 1019.2 hPa | 0 mm | - | 121 W/m² | - |
* Rain latest hour (hover to see other rain measurements)
** Current wind speed in m/s (hover to see current wind gust speed)